| time (UTC) | temp F | wind direction | speed MPH | gust MPH | rain 1hr in | rain 24hr in | rain mn in | humidity % | barometer mb |
| 20260502233714 | 51 | 209 | 0.0 | 0.0 | 0.00 | 0.00 | 0.00 | 84 | 1014.4 |
| 20260502233204 | 51 | 209 | 0.0 | 0.0 | 0.00 | 0.00 | 0.00 | 84 | 1014.6 |
| 20260502232144 | 51 | 209 | 0.0 | 0.0 | 0.00 | 0.00 | 0.00 | 83 | 1014.4 |
| 20260502231124 | 52 | 209 | 0.0 | 0.0 | 0.00 | 0.00 | 0.00 | 83 | 1014.7 |
| 20260502230614 | 52 | 209 | 0.0 | 0.0 | 0.00 | 0.00 | 0.00 | 83 | 1014.7 |
| 20260502230142 | 52 | 209 | 0.0 | 0.0 | 0.00 | 0.00 | 0.00 | 83 | 1015.0 |
| 20260502225554 | 52 | 209 | 0.0 | 0.0 | 0.00 | 0.00 | 0.00 | 83 | 1014.9 |
| 20260502225047 | 52 | 209 | 0.0 | 0.0 | 0.00 | 0.00 | 0.00 | 82 | 1014.8 |
| 20260502224534 | 52 | 209 | 0.0 | 0.0 | 0.00 | 0.00 | 0.00 | 82 | 1014.8 |
| 20260502224024 | 52 | 209 | 0.0 | 0.0 | 0.00 | 0.00 | 0.00 | 82 | 1014.9 |
| 20260502223552 | 52 | 209 | 0.0 | 0.0 | 0.00 | 0.00 | 0.00 | 82 | 1015.0 |
| 20260502223004 | 52 | 209 | 0.0 | 0.0 | 0.00 | 0.00 | 0.00 | 81 | 1014.9 |
| 20260502222454 | 52 | 209 | 0.0 | 0.0 | 0.00 | 0.00 | 0.00 | 81 | 1014.8 |
| 20260502221944 | 52 | 209 | 0.0 | 0.0 | 0.00 | 0.00 | 0.00 | 81 | 1014.9 |
| 20260502221002 | 52 | 209 | 0.0 | 0.0 | 0.00 | 0.00 | 0.00 | 81 | 1015.0 |
| 20260502214844 | 53 | 209 | 0.0 | 0.0 | 0.00 | 0.00 | 0.00 | 80 | 1015.1 |
| 20260502213824 | 53 | 209 | 0.0 | 0.0 | 0.00 | 0.00 | 0.00 | 79 | 1015.2 |
| 20260502213314 | 53 | 209 | 0.0 | 0.0 | 0.00 | 0.00 | 0.00 | 78 | 1015.0 |
| 20260502212254 | 53 | 209 | 0.0 | 0.0 | 0.00 | 0.00 | 0.00 | 77 | 1015.1 |
| 20260502211747 | 53 | 209 | 0.0 | 0.0 | 0.00 | 0.00 | 0.00 | 77 | 1015.4 |
| 20260502210724 | 54 | 209 | 0.0 | 0.0 | 0.00 | 0.00 | 0.00 | 76 | 1015.5 |
| 20260502205707 | 54 | 210 | 0.0 | 0.0 | 0.00 | 0.00 | 0.00 | 75 | 1015.5 |
| 20260502204134 | 55 | 210 | 0.0 | 0.0 | 0.00 | 0.00 | 0.00 | 74 | 1015.5 |
| 20260502203623 | 55 | 209 | 0.0 | 0.0 | 0.00 | 0.00 | 0.00 | 73 | 1015.4 |
| 20260502203151 | 56 | 209 | 0.0 | 0.0 | 0.00 | 0.00 | 0.00 | 73 | 1015.4 |
| 20260502201034 | 57 | 210 | 0.0 | 0.0 | 0.00 | 0.00 | 0.00 | 70 | 1015.8 |
| 20260502200605 | 57 | 210 | 0.0 | 0.0 | 0.00 | 0.00 | 0.00 | 70 | 1015.8 |
| 20260502194953 | 58 | 209 | 0.0 | 0.0 | 0.00 | 0.00 | 0.00 | 66 | 1015.9 |
| 20260502193934 | 58 | 218 | 0.0 | 0.0 | 0.00 | 0.00 | 0.00 | 66 | 1015.9 |
| 20260502192952 | 59 | 218 | 0.0 | 0.0 | 0.00 | 0.00 | 0.00 | 65 | 1016.1 |
| 20260502192441 | 60 | 218 | 0.0 | 0.0 | 0.00 | 0.00 | 0.00 | 64 | 1015.9 |
| 20260502191853 | 60 | 218 | 0.0 | 0.0 | 0.00 | 0.00 | 0.00 | 62 | 1016.1 |
| 20260502190833 | 61 | 218 | 0.0 | 0.0 | 0.00 | 0.00 | 0.00 | 61 | 1016.0 |
| 20260502190402 | 62 | 218 | 0.0 | 0.0 | 0.00 | 0.00 | 0.00 | 60 | 1016.1 |
| 20260502185341 | 64 | 218 | 0.0 | 0.0 | 0.00 | 0.00 | 0.00 | 57 | 1015.9 |
| 20260502184756 | 64 | 218 | 0.0 | 0.0 | 0.00 | 0.00 | 0.00 | 56 | 1015.8 |
| 20260502183815 | 65 | 218 | 0.0 | 0.0 | 0.00 | 0.00 | 0.00 | 53 | 1015.8 |
| 20260502183301 | 66 | 218 | 0.0 | 0.0 | 0.00 | 0.00 | 0.00 | 51 | 1015.9 |
| 20260502182755 | 67 | 218 | 0.0 | 0.0 | 0.00 | 0.00 | 0.00 | 50 | 1015.9 |
| 20260502181734 | 69 | 218 | 0.0 | 0.0 | 0.00 | 0.00 | 0.00 | 45 | 1015.9 |
| 20260502181143 | 70 | 218 | 0.0 | 0.0 | 0.00 | 0.00 | 0.00 | 45 | 1015.9 |
| 20260502180201 | 72 | 208 | 0.0 | 0.0 | 0.00 | 0.00 | 0.00 | 42 | 1016.0 |
| 20260502170512 | 76 | 193 | 0.0 | 2.0 | 0.00 | 0.00 | 0.00 | 32 | 1016.3 |
| 20260502163333 | 77 | 172 | 1.0 | 4.0 | 0.00 | 0.00 | 0.00 | 32 | 1016.1 |
| 20260502162823 | 77 | 204 | 1.0 | 3.0 | 0.00 | 0.00 | 0.00 | 33 | 1016.4 |
| 20260502162313 | 78 | 179 | 1.0 | 3.0 | 0.00 | 0.00 | 0.00 | 33 | 1016.5 |
| 20260502160743 | 79 | 213 | 1.0 | 6.0 | 0.00 | 0.00 | 0.00 | 30 | 1016.5 |
| 20260502160233 | 80 | 173 | 1.0 | 4.0 | 0.00 | 0.00 | 0.00 | 30 | 1016.5 |
| 20260502151641 | 82 | 141 | 4.0 | 9.0 | 0.00 | 0.00 | 0.00 | 29 | 1017.1 |
| 20260502151053 | 82 | 173 | 1.0 | 6.0 | 0.00 | 0.00 | 0.00 | 30 | 1017.2 |
| 20260502150543 | 82 | 223 | 1.0 | 3.0 | 0.00 | 0.00 | 0.00 | 29 | 1017.2 |
| 20260502130142 | 81 | 229 | 1.0 | 4.0 | 0.00 | 0.00 | 0.00 | 32 | 1019.2 |
| 20260502123555 | 80 | 150 | 4.0 | 4.0 | 0.00 | 0.00 | 0.00 | 33 | 1019.4 |
| 20260502123042 | 80 | 236 | 0.0 | 4.0 | 0.00 | 0.00 | 0.00 | 33 | 1019.8 |
| 20260502122022 | 80 | 227 | 2.0 | 7.0 | 0.00 | 0.00 | 0.00 | 34 | 1019.7 |
| 20260502121512 | 80 | 212 | 1.0 | 4.0 | 0.00 | 0.00 | 0.00 | 34 | 1020.0 |
| 20260502121002 | 79 | 183 | 2.0 | 3.0 | 0.00 | 0.00 | 0.00 | 34 | 1020.0 |
| 20260502120452 | 79 | 215 | 1.0 | 6.0 | 0.00 | 0.00 | 0.00 | 33 | 1019.8 |
| 20260502115432 | 79 | 172 | 2.0 | 3.0 | 0.00 | 0.00 | 0.00 | 34 | 1020.2 |
| 20260502114922 | 80 | 204 | 2.0 | 3.0 | 0.00 | 0.00 | 0.00 | 34 | 1020.1 |
| 20260502114412 | 79 | 114 | 1.0 | 3.0 | 0.00 | 0.00 | 0.00 | 33 | 1020.4 |
| 20260502113902 | 80 | 133 | 2.0 | 2.0 | 0.00 | 0.00 | 0.00 | 34 | 1020.3 |
| 20260502113352 | 79 | 165 | 1.0 | 2.0 | 0.00 | 0.00 | 0.00 | 34 | 1020.4 |
| 20260502112842 | 79 | 269 | 1.0 | 3.0 | 0.00 | 0.00 | 0.00 | 33 | 1020.4 |
| 20260502112332 | 79 | 263 | 2.0 | 4.0 | 0.00 | 0.00 | 0.00 | 35 | 1020.5 |
| 20260502111822 | 79 | 93 | 3.0 | 4.0 | 0.00 | 0.00 | 0.00 | 34 | 1020.8 |
| 20260502111312 | 78 | 167 | 1.0 | 4.0 | 0.00 | 0.00 | 0.00 | 35 | 1020.7 |
| 20260502105742 | 77 | 160 | 3.0 | 6.0 | 0.00 | 0.00 | 0.00 | 36 | 1020.9 |
| 20260502105310 | 78 | 173 | 3.0 | 9.0 | 0.00 | 0.00 | 0.00 | 36 | 1021.1 |
| 20260502104844 | 78 | 201 | 2.0 | 4.0 | 0.00 | 0.00 | 0.00 | 36 | 1021.2 |
| 20260502104250 | 78 | 213 | 1.0 | 3.0 | 0.00 | 0.00 | 0.00 | 37 | 1021.1 |
| 20260502103231 | 78 | 172 | 1.0 | 3.0 | 0.00 | 0.00 | 0.00 | 35 | 1021.1 |
| 20260502102642 | 78 | 159 | 1.0 | 6.0 | 0.00 | 0.00 | 0.00 | 36 | 1021.2 |
| 20260502102132 | 77 | 182 | 1.0 | 3.0 | 0.00 | 0.00 | 0.00 | 35 | 1021.3 |
| 20260502101112 | 78 | 176 | 2.0 | 3.0 | 0.00 | 0.00 | 0.00 | 35 | 1021.5 |
| 20260502100602 | 78 | 245 | 2.0 | 3.0 | 0.00 | 0.00 | 0.00 | 37 | 1021.4 |
| 20260502091034 | 76 | 153 | 2.0 | 4.0 | 0.00 | 0.00 | 0.00 | 36 | 1022.0 |
| 20260502090401 | 76 | 196 | 0.0 | 2.0 | 0.00 | 0.00 | 0.00 | 38 | 1022.1 |
| 20260502070514 | 64 | 174 | 3.0 | 3.0 | 0.00 | 0.00 | 0.00 | 54 | 1022.8 |
| 20260502070039 | 64 | 175 | 1.0 | 2.0 | 0.00 | 0.00 | 0.00 | 57 | 1022.6 |
| 20260502065451 | 64 | 159 | 3.0 | 6.0 | 0.00 | 0.00 | 0.00 | 55 | 1022.6 |
| 20260502063921 | 62 | 203 | 1.0 | 3.0 | 0.00 | 0.00 | 0.00 | 61 | 1022.7 |
| 20260502063411 | 61 | 192 | 1.0 | 1.0 | 0.00 | 0.00 | 0.00 | 63 | 1022.8 |
| 20260502062939 | 60 | 198 | 1.0 | 2.0 | 0.00 | 0.00 | 0.00 | 63 | 1022.9 |
| 20260502062356 | 60 | 141 | 1.0 | 2.0 | 0.00 | 0.00 | 0.00 | 65 | 1022.8 |
| 20260502061841 | 59 | 156 | 3.0 | 3.0 | 0.00 | 0.00 | 0.00 | 66 | 1023.0 |
| 20260502060311 | 56 | 187 | 2.0 | 3.0 | 0.00 | 0.00 | 0.00 | 71 | 1022.9 |
| 20260502055801 | 56 | 200 | 2.0 | 3.0 | 0.00 | 0.00 | 0.00 | 71 | 1023.1 |
| 20260502055251 | 55 | 191 | 1.0 | 1.0 | 0.00 | 0.00 | 0.00 | 74 | 1023.0 |
| 20260502054741 | 54 | 194 | 0.0 | 2.0 | 0.00 | 0.00 | 0.00 | 75 | 1023.0 |
| 20260502054231 | 54 | 198 | 1.0 | 2.0 | 0.00 | 0.00 | 0.00 | 76 | 1023.1 |
| 20260502053721 | 53 | 210 | 1.0 | 2.0 | 0.00 | 0.00 | 0.00 | 79 | 1023.1 |
| 20260502052739 | 51 | 187 | 1.0 | 1.0 | 0.00 | 0.00 | 0.00 | 83 | 1023.1 |
| 20260502052151 | 50 | 197 | 1.0 | 2.0 | 0.00 | 0.00 | 0.00 | 86 | 1023.3 |
| 20260502051641 | 48 | 201 | 1.0 | 2.0 | 0.00 | 0.00 | 0.00 | 90 | 1023.2 |
| 20260502051256 | 46 | 198 | 0.0 | 1.0 | 0.00 | 0.00 | 0.00 | 94 | 1023.1 |
| 20260502045051 | 43 | 192 | 0.0 | 0.0 | 0.00 | 0.00 | 0.00 | 95 | 1023.5 |
| 20260502044703 | 43 | 192 | 0.0 | 0.0 | 0.00 | 0.00 | 0.00 | 95 | 1023.1 |
| 20260502044031 | 43 | 192 | 0.0 | 0.0 | 0.00 | 0.00 | 0.00 | 95 | 1023.2 |
| 20260502043559 | 42 | 192 | 0.0 | 0.0 | 0.00 | 0.00 | 0.00 | 95 | 1023.2 |
| 20260502043010 | 42 | 192 | 0.0 | 0.0 | 0.00 | 0.00 | 0.00 | 95 | 1023.1 |
| 20260502042539 | 42 | 192 | 0.0 | 0.0 | 0.00 | 0.00 | 0.00 | 95 | 1023.1 |
| 20260502041950 | 42 | 192 | 0.0 | 0.0 | 0.00 | 0.00 | 0.00 | 95 | 1023.1 |
| 20260502041440 | 42 | 192 | 0.0 | 0.0 | 0.00 | 0.00 | 0.00 | 95 | 1023.0 |
| 20260502040423 | 42 | 192 | 0.0 | 0.0 | 0.00 | 0.00 | 0.00 | 95 | 1023.2 |
| 20260502035949 | 42 | 192 | 0.0 | 0.0 | 0.00 | 0.00 | 0.00 | 95 | 1023.3 |
| 20260502034851 | 42 | 192 | 0.0 | 0.0 | 0.00 | 0.00 | 0.00 | 95 | 1023.2 |
| 20260502034340 | 42 | 192 | 0.0 | 0.0 | 0.00 | 0.00 | 0.00 | 95 | 1023.1 |
| 20260502033830 | 42 | 192 | 0.0 | 0.0 | 0.00 | 0.00 | 0.00 | 94 | 1023.2 |
| 20260502033320 | 41 | 192 | 0.0 | 0.0 | 0.00 | 0.00 | 0.00 | 94 | 1023.3 |
| 20260502032811 | 42 | 192 | 0.0 | 0.0 | 0.00 | 0.00 | 0.00 | 94 | 1023.3 |
| 20260502032300 | 42 | 192 | 0.0 | 0.0 | 0.00 | 0.00 | 0.00 | 94 | 1023.4 |
| 20260502031750 | 42 | 192 | 0.0 | 0.0 | 0.00 | 0.00 | 0.00 | 94 | 1023.3 |
| 20260502031240 | 42 | 192 | 0.0 | 0.0 | 0.00 | 0.00 | 0.00 | 94 | 1023.5 |
| 20260502025710 | 42 | 192 | 0.0 | 0.0 | 0.00 | 0.00 | 0.00 | 93 | 1023.7 |
| 20260502025239 | 42 | 192 | 0.0 | 0.0 | 0.00 | 0.00 | 0.00 | 93 | 1023.6 |
| 20260502024650 | 42 | 192 | 0.0 | 0.0 | 0.00 | 0.00 | 0.00 | 94 | 1023.6 |
| 20260502023120 | 42 | 192 | 0.0 | 0.0 | 0.00 | 0.00 | 0.00 | 94 | 1023.6 |
| 20260502022610 | 42 | 193 | 0.0 | 0.0 | 0.00 | 0.00 | 0.00 | 94 | 1023.7 |
| 20260502022100 | 42 | 193 | 0.0 | 0.0 | 0.00 | 0.00 | 0.00 | 94 | 1023.7 |
| 20260502021550 | 42 | 193 | 0.0 | 0.0 | 0.00 | 0.00 | 0.00 | 94 | 1023.5 |
| 20260502020530 | 42 | 193 | 0.0 | 0.0 | 0.00 | 0.00 | 0.00 | 93 | 1023.5 |
| 20260502015510 | 43 | 193 | 0.0 | 0.0 | 0.00 | 0.00 | 0.00 | 93 | 1023.7 |
| 20260502015000 | 43 | 193 | 0.0 | 0.0 | 0.00 | 0.00 | 0.00 | 93 | 1023.6 |
| 20260502014528 | 43 | 193 | 0.0 | 0.0 | 0.00 | 0.00 | 0.00 | 93 | 1023.8 |
| 20260502013940 | 43 | 193 | 0.0 | 0.0 | 0.00 | 0.00 | 0.00 | 93 | 1023.7 |
| 20260502012920 | 43 | 193 | 0.0 | 0.0 | 0.00 | 0.00 | 0.00 | 93 | 1023.7 |
| 20260502012448 | 43 | 193 | 0.0 | 0.0 | 0.00 | 0.00 | 0.00 | 93 | 1023.8 |
| 20260502011900 | 43 | 193 | 0.0 | 0.0 | 0.00 | 0.00 | 0.00 | 92 | 1023.8 |
| 20260502010840 | 43 | 193 | 0.0 | 0.0 | 0.00 | 0.00 | 0.00 | 92 | 1024.1 |
| 20260502010330 | 43 | 193 | 0.0 | 0.0 | 0.00 | 0.00 | 0.00 | 92 | 1024.2 |
| 20260502005820 | 44 | 193 | 0.0 | 0.0 | 0.00 | 0.00 | 0.00 | 92 | 1024.3 |
| 20260502005310 | 44 | 193 | 0.0 | 0.0 | 0.00 | 0.00 | 0.00 | 92 | 1024.2 |
| 20260502004328 | 44 | 193 | 0.0 | 0.0 | 0.00 | 0.00 | 0.00 | 92 | 1024.0 |
| 20260502003230 | 44 | 193 | 0.0 | 0.0 | 0.00 | 0.00 | 0.00 | 91 | 1024.4 |
| 20260502002210 | 44 | 193 | 0.0 | 0.0 | 0.00 | 0.00 | 0.00 | 91 | 1024.4 |
| 20260502001700 | 44 | 193 | 0.0 | 0.0 | 0.00 | 0.00 | 0.00 | 91 | 1024.4 |
| 20260502001150 | 45 | 193 | 0.0 | 0.0 | 0.00 | 0.00 | 0.00 | 90 | 1024.5 |
| 20260502000640 | 45 | 193 | 0.0 | 0.0 | 0.00 | 0.00 | 0.00 | 90 | 1024.1 |
| 20260501235620 | 45 | 193 | 0.0 | 0.0 | 0.00 | 0.00 | 0.00 | 89 | 1024.5 |
| 20260501234600 | 46 | 193 | 0.0 | 0.0 | 0.00 | 0.00 | 0.00 | 89 | 1024.8 |